Tracking 19242 objects as of 16-Aug-2018
HD Live streaming from Space Station
objects crossing your sky now

OPS 1570

Track OPS 1570 now!
OPS 1570 is classified as:


NORAD ID: 5851
Int'l Code: 1972-010A
Perigee: 35,888.1 km
Apogee: 35,984.5 km
Inclination: 6.7 °
Period: 1,443.4 minutes
Semi major axis: 42307 km
RCS: Unknown
Launch date: March 1, 1972
Source: United States (US)
Launch site: AIR FORCE EASTERN TEST RANGE (AFETR)
aabbcc
Your satellite tracking list
Your tracking list is empty




NASA's NSSDC Master Catalog

Two Line Element Set (TLE):
1 05851U 72010A   18218.25049747 0.00000000  00000-0  00000-0 0    00
2 05851   6.6664 300.5553 0011391 304.2154  55.6887  0.99765438    04
Source of the keplerian elements: McCants